When you browse on this site, cookies collect data to enhance your experience and personalize the content and advertising you see.
Visit our Privacy Policy to learn more. By continuing to use the site, you agree to this use of cookies and data.
  • In Hungary
  • List of Countries
  • For 7 days
  • Water Temperature
  • Satellite Maps
  • Weather Map
  • News
  • Weather Widgets
  • user-avatar
    Login

    Hourly Weather Cmur

    Today, 20 November, Tuesday

    Time Temperature Precipitation Wind Pressure Humidity
    00:00 +5°C° 0 mm 2 mps 708 mmHg 54%
    01:00 +5°C° 0 mm 2 mps 707 mmHg 54%
    02:00 +4°C° 0 mm 3 mps 707 mmHg 53%
    03:00 +4°C° 0 mm 3 mps 706 mmHg 53%
    04:00 +5°C° 0 mm 2 mps 706 mmHg 52%
    05:00 +6°C° 0 mm 2 mps 706 mmHg 51%
    06:00 +6°C° 0 mm 2 mps 705 mmHg 51%
    07:00 +7°C° 0 mm 2 mps 705 mmHg 49%
    08:00 +9°C° 0 mm 2 mps 705 mmHg 47%
    09:00 +10°C° 0 mm 2 mps 705 mmHg 44%
    10:00 +12°C° 0 mm 2 mps 705 mmHg 44%
    11:00 +13°C° 0 mm 1 mps 704 mmHg 44%
    12:00 +15°C° 0 mm 1 mps 703 mmHg 44%
    13:00 +14°C° 0 mm 1 mps 703 mmHg 47%
    14:00 +14°C° 0 mm 1 mps 703 mmHg 50%
    15:00 +14°C° 0 mm 1 mps 702 mmHg 53%
    16:00 +13°C° 0 mm 2 mps 702 mmHg 57%
    17:00 +10°C° 0 mm 2 mps 702 mmHg 61%
    18:00 +9°C° 0 mm 3 mps 702 mmHg 66%
    19:00 +9°C° 0 mm 3 mps 702 mmHg 64%
    20:00 +9°C° 0 mm 3 mps 702 mmHg 63%
    21:00 +9°C° 0 mm 3 mps 701 mmHg 62%
    22:00 +9°C° 0 mm 2 mps 701 mmHg 61%
    23:00 +9°C° 0 mm 2 mps 701 mmHg 61%

    Tomorrow, 21 November, Wednesday

    Time Temperature Precipitation Wind Pressure Humidity
    00:00 +9°C° 0 mm 2 mps 701 mmHg 60%
    01:00 +8°C° 0 mm 2 mps 701 mmHg 64%
    02:00 +8°C° 0 mm 2 mps 701 mmHg 68%
    03:00 +7°C° 0 mm 3 mps 701 mmHg 71%
    04:00 +7°C° 0.4 mm 3 mps 701 mmHg 75%
    05:00 +5°C° 0.4 mm 3 mps 701 mmHg 79%
    06:00 +5°C° 0.4 mm 3 mps 701 mmHg 83%
    07:00 +7°C° 0.1 mm 2 mps 702 mmHg 79%
    08:00 +8°C° 0.1 mm 2 mps 702 mmHg 74%
    09:00 +8°C° 0.1 mm 2 mps 703 mmHg 70%
    10:00 +9°C° 0 mm 2 mps 702 mmHg 68%
    11:00 +10°C° 0 mm 3 mps 702 mmHg 66%
    12:00 +10°C° 0 mm 3 mps 702 mmHg 64%
    13:00 +10°C° 0 mm 3 mps 702 mmHg 68%
    14:00 +9°C° 0 mm 3 mps 702 mmHg 72%
    15:00 +9°C° 0 mm 3 mps 702 mmHg 76%
    16:00 +8°C° 0 mm 3 mps 702 mmHg 79%
    17:00 +7°C° 0 mm 3 mps 702 mmHg 83%
    18:00 +6°C° 0 mm 2 mps 702 mmHg 86%
    19:00 +6°C° 0 mm 2 mps 702 mmHg 86%
    20:00 +6°C° 0 mm 2 mps 702 mmHg 86%
    21:00 +6°C° 0 mm 2 mps 702 mmHg 86%
    22:00 +6°C° 0 mm 2 mps 702 mmHg 87%
    23:00 +6°C° 0 mm 2 mps 702 mmHg 87%

    Day after tomorrow, 22 November, Thursday

    Time Temperature Precipitation Wind Pressure Humidity
    00:00 +5°C° 0 mm 2 mps 702 mmHg 87%
    01:00 +5°C° 0 mm 2 mps 702 mmHg 87%
    02:00 +6°C° 0 mm 1 mps 701 mmHg 88%
    03:00 +6°C° 0 mm 1 mps 701 mmHg 88%
    04:00 +6°C° 0 mm 1 mps 701 mmHg 88%
    05:00 +6°C° 0 mm 1 mps 701 mmHg 88%
    06:00 +6°C° 0 mm 1 mps 701 mmHg 89%
    07:00 +6°C° 0.1 mm 2 mps 701 mmHg 86%
    08:00 +6°C° 0.1 mm 2 mps 702 mmHg 84%
    09:00 +7°C° 0.1 mm 2 mps 702 mmHg 82%
    10:00 +7°C° 0.1 mm 2 mps 702 mmHg 81%
    11:00 +7°C° 0.1 mm 2 mps 701 mmHg 80%
    12:00 +8°C° 0.1 mm 2 mps 701 mmHg 79%
    13:00 +7°C° 0 mm 2 mps 701 mmHg 80%
    14:00 +7°C° 0 mm 2 mps 701 mmHg 82%
    15:00 +7°C° 0 mm 2 mps 701 mmHg 83%
    16:00 +7°C° 0 mm 2 mps 701 mmHg 85%
    17:00 +6°C° 0 mm 2 mps 701 mmHg 87%
    18:00 +6°C° 0 mm 2 mps 701 mmHg 89%
    19:00 +7°C° 0 mm 1 mps 701 mmHg 88%
    20:00 +6°C° 0 mm 1 mps 702 mmHg 87%
    21:00 +6°C° 0 mm 1 mps 702 mmHg 87%
    22:00 +6°C° 0 mm 1 mps 702 mmHg 87%
    23:00 +6°C° 0 mm 1 mps 702 mmHg 87%

    23 November, Friday

    Time Temperature Precipitation Wind Pressure Humidity
    00:00 +6°C° 0 mm 1 mps 702 mmHg 87%
    01:00 +6°C° 0 mm 1 mps 701 mmHg 86%
    02:00 +6°C° 0 mm 1 mps 701 mmHg 86%
    03:00 +6°C° 0 mm 1 mps 701 mmHg 85%
    04:00 +6°C° 0 mm 1 mps 701 mmHg 85%
    05:00 +6°C° 0 mm 1 mps 701 mmHg 84%
    06:00 +6°C° 0 mm 1 mps 701 mmHg 84%
    07:00 +5°C° 0 mm 2 mps 702 mmHg 81%
    08:00 +6°C° 0 mm 2 mps 702 mmHg 79%
    09:00 +7°C° 0 mm 2 mps 703 mmHg 76%
    10:00 +7°C° 0.1 mm 2 mps 703 mmHg 76%
    11:00 +7°C° 0.1 mm 2 mps 703 mmHg 76%
    12:00 +8°C° 0.1 mm 3 mps 703 mmHg 76%
    13:00 +7°C° 0 mm 3 mps 703 mmHg 78%
    14:00 +7°C° 0 mm 3 mps 703 mmHg 81%
    15:00 +5°C° 0 mm 3 mps 703 mmHg 83%
    16:00 +5°C° 0.1 mm 3 mps 704 mmHg 86%
    17:00 +4°C° 0.1 mm 3 mps 704 mmHg 88%
    18:00 +4°C° 0.1 mm 3 mps 705 mmHg 90%
    19:00 +3°C° 0.3 mm 3 mps 706 mmHg 90%
    20:00 +3°C° 0.3 mm 3 mps 707 mmHg 89%
    21:00 +3°C° 0.3 mm 4 mps 708 mmHg 88%
    22:00 +2°C° 0.1 mm 3 mps 708 mmHg 87%
    23:00 +2°C° 0.1 mm 3 mps 708 mmHg 86%

    24 November, Saturday

    Time Temperature Precipitation Wind Pressure Humidity
    00:00 +1°C° 0.1 mm 3 mps 709 mmHg 84%
    01:00 +1°C° 0 mm 3 mps 709 mmHg 85%
    02:00 +1°C° 0 mm 3 mps 710 mmHg 85%
    03:00 +2°C° 0 mm 2 mps 710 mmHg 85%
    04:00 +2°C° 0 mm 2 mps 710 mmHg 85%
    05:00 +1°C° 0 mm 2 mps 711 mmHg 86%
    06:00 +1°C° 0 mm 2 mps 711 mmHg 86%
    07:00 +2°C° 0 mm 2 mps 712 mmHg 83%
    08:00 +3°C° 0 mm 2 mps 712 mmHg 79%
    09:00 +4°C° 0 mm 2 mps 713 mmHg 76%
    10:00 +3°C° 0 mm 3 mps 713 mmHg 73%
    11:00 +4°C° 0 mm 3 mps 713 mmHg 70%
    12:00 +5°C° 0 mm 4 mps 713 mmHg 68%
    13:00 +5°C° 0 mm 4 mps 713 mmHg 69%
    14:00 +5°C° 0 mm 4 mps 712 mmHg 70%
    15:00 +5°C° 0 mm 4 mps 712 mmHg 71%
    16:00 +5°C° 0 mm 4 mps 712 mmHg 73%
    17:00 +4°C° 0 mm 3 mps 712 mmHg 75%
    18:00 +3°C° 0 mm 3 mps 711 mmHg 77%
    19:00 +3°C° 0 mm 3 mps 711 mmHg 76%
    20:00 +3°C° 0 mm 3 mps 711 mmHg 74%
    21:00 +3°C° 0 mm 3 mps 710 mmHg 72%
    22:00 +4°C° 0 mm 3 mps 710 mmHg 71%
    23:00 +5°C° 0 mm 2 mps 709 mmHg 69%

    25 November, Sunday

    Time Temperature Precipitation Wind Pressure Humidity
    00:00 +5°C° 0 mm 2 mps 709 mmHg 67%
    01:00 +5°C° 0 mm 2 mps 708 mmHg 65%
    02:00 +5°C° 0 mm 2 mps 708 mmHg 64%
    03:00 +5°C° 0 mm 2 mps 707 mmHg 62%
    04:00 +5°C° 0 mm 2 mps 707 mmHg 60%
    05:00 +5°C° 0 mm 2 mps 706 mmHg 58%
    06:00 +5°C° 0 mm 2 mps 706 mmHg 56%
    07:00 +7°C° 0 mm 2 mps 706 mmHg 52%
    08:00 +8°C° 0 mm 2 mps 706 mmHg 49%
    09:00 +10°C° 0 mm 1 mps 706 mmHg 46%
    10:00 +11°C° 0 mm 1 mps 705 mmHg 46%
    11:00 +12°C° 0 mm 2 mps 705 mmHg 47%
    12:00 +12°C° 0 mm 2 mps 704 mmHg 47%
    13:00 +12°C° 0 mm 2 mps 704 mmHg 52%
    14:00 +10°C° 0 mm 2 mps 703 mmHg 57%
    15:00 +10°C° 0 mm 2 mps 703 mmHg 62%
    16:00 +10°C° 0 mm 1 mps 703 mmHg 66%
    17:00 +9°C° 0 mm 1 mps 703 mmHg 70%
    18:00 +8°C° 0 mm 1 mps 703 mmHg 74%
    19:00 +7°C° 0 mm 1 mps 703 mmHg 73%
    20:00 +7°C° 0 mm 1 mps 703 mmHg 72%
    21:00 +7°C° 0 mm 1 mps 703 mmHg 71%
    22:00 +7°C° 0 mm 1 mps 703 mmHg 71%
    23:00 +7°C° 0 mm 1 mps 703 mmHg 70%
    Show more